FW7956 Weather Reports


time (UTC)temp
F
wind
direction
speed
knots
gust
knots
rain 1hr
in
rain 24hr
in
rain mn
in
humidity
%
barometer
mb
20260504000548 69 227 5.2 10.4 0.00 0.00 0.00 43 1002.9
20260503235551 69 222 4.3 12.2 0.00 0.00 0.00 42 1002.8
20260503235051 69 281 5.2 12.2 0.00 0.00 0.00 43 1002.8
20260503234554 69 226 5.2 8.7 0.00 0.00 0.00 42 1002.8
20260503234049 70 231 4.3 10.4 0.00 0.00 0.00 42 1002.8
20260503233549 70 228 5.2 11.3 0.00 0.00 0.00 42 1002.7
20260503233051 70 224 6.1 11.3 0.00 0.00 0.00 41 1002.7
20260503232548 70 247 4.3 16.5 0.00 0.00 0.00 41 1002.9
20260503232048 70 212 7.8 16.5 0.00 0.00 0.00 41 1002.8
20260503231559 70 231 7.8 16.5 0.00 0.00 0.00 42 1002.8
20260503231049 70 261 6.1 14.8 0.00 0.00 0.00 41 1002.8
20260503230549 70 245 8.7 14.8 0.00 0.00 0.00 42 1003.0
20260503230105 69 260 7.8 13.9 0.00 0.00 0.00 43 1002.9
20260503225551 70 222 6.1 13.9 0.00 0.00 0.00 42 1003.0
20260503225049 70 238 3.5 13.9 0.00 0.00 0.00 43 1003.0
20260503224559 69 240 7.8 13.9 0.00 0.00 0.00 42 1003.1
20260503224049 69 243 7.8 11.3 0.00 0.00 0.00 43 1003.0
20260503223549 69 232 5.2 19.1 0.00 0.00 0.00 43 1003.2
20260503223056 69 257 5.2 19.1 0.00 0.00 0.00 45 1003.1
20260503222548 69 271 9.6 19.1 0.00 0.00 0.00 43 1003.1
20260503222048 69 243 7.0 13.9 0.00 0.00 0.00 44 1003.1
20260503221553 69 274 7.0 14.8 0.00 0.00 0.00 44 1003.2
20260503221048 69 237 7.8 16.5 0.00 0.00 0.00 44 1003.1
20260503220549 69 236 9.6 17.4 0.00 0.00 0.00 44 1003.1
20260503220056 68 239 9.6 17.4 0.00 0.00 0.00 46 1003.2
20260503215547 69 252 12.2 18.2 0.00 0.00 0.00 44 1003.1
20260503215050 69 235 6.1 18.2 0.00 0.00 0.00 46 1003.0
20260503214552 68 182 9.6 16.5 0.00 0.00 0.00 46 1003.0
20260503214049 68 224 5.2 15.6 0.00 0.00 0.00 47 1003.2
20260503213549 68 240 11.3 15.6 0.00 0.00 0.00 46 1003.1
20260503213101 68 245 7.8 18.2 0.00 0.00 0.00 47 1003.2
20260503212548 68 233 11.3 18.2 0.00 0.00 0.00 46 1003.2
20260503212048 68 267 9.6 13.0 0.00 0.00 0.00 46 1003.3
20260503211612 68 200 6.1 15.6 0.00 0.00 0.00 47 1003.4
20260503211052 68 245 4.3 15.6 0.00 0.00 0.00 47 1003.4
20260503210549 67 247 9.6 15.6 0.00 0.00 0.00 46 1003.5
20260503210058 67 259 8.7 15.6 0.00 0.00 0.00 47 1003.6
20260503205549 67 237 9.6 16.5 0.00 0.00 0.00 48 1003.5
20260503205049 67 266 10.4 16.5 0.00 0.00 0.00 49 1003.6
20260503204548 67 245 7.8 15.6 0.00 0.00 0.00 48 1003.6
20260503204046 66 242 8.7 15.6 0.00 0.00 0.00 49 1003.8
20260503203547 66 227 8.7 18.2 0.00 0.00 0.00 49 1003.9
20260503203053 66 240 11.3 18.2 0.00 0.00 0.00 47 1004.0
20260503202547 66 226 8.7 18.2 0.00 0.00 0.00 49 1004.1
20260503202045 66 210 9.6 18.2 0.00 0.00 0.00 50 1004.0
20260503201552 66 221 7.8 18.2 0.00 0.00 0.00 48 1004.2
20260503201050 66 241 9.6 17.4 0.00 0.00 0.00 49 1004.3
20260503200548 66 232 9.6 18.2 0.00 0.00 0.00 48 1004.5
20260503200101 66 219 10.4 19.1 0.00 0.00 0.00 50 1004.5
20260503195548 65 241 9.6 19.1 0.00 0.00 0.00 49 1004.4
20260503195048 65 243 8.7 21.7 0.00 0.00 0.00 49 1004.5
20260503194602 65 226 12.2 21.7 0.00 0.00 0.00 49 1004.5
20260503194046 65 225 8.7 19.1 0.00 0.00 0.00 50 1004.6
20260503193545 65 225 11.3 19.1 0.00 0.00 0.00 49 1004.7
20260503193058 65 232 8.7 17.4 0.00 0.00 0.00 51 1004.7
20260503192546 64 228 10.4 22.6 0.00 0.00 0.00 50 1004.8
20260503192047 64 236 13.9 22.6 0.00 0.00 0.00 49 1004.7
20260503191554 64 233 11.3 21.7 0.00 0.00 0.00 49 1004.8
20260503191049 64 200 13.0 21.7 0.00 0.00 0.00 49 1004.7
20260503190548 64 235 13.0 20.9 0.00 0.00 0.00 49 1004.9
20260503190051 64 239 10.4 21.7 0.00 0.00 0.00 50 1004.9
20260503185548 64 182 10.4 22.6 0.00 0.00 0.00 51 1005.0
20260503185048 64 217 12.2 22.6 0.00 0.00 0.00 49 1005.1
20260503184601 63 199 11.3 18.2 0.00 0.00 0.00 49 1004.9
20260503184048 63 221 12.2 22.6 0.00 0.00 0.00 49 1005.0
20260503183549 63 193 10.4 22.6 0.00 0.00 0.00 49 1004.9
20260503183050 63 226 13.0 20.0 0.00 0.00 0.00 50 1005.1
20260503182547 63 240 13.0 22.6 0.00 0.00 0.00 50 1005.1
20260503182048 63 231 12.2 22.6 0.00 0.00 0.00 52 1005.2
20260503181610 63 141 9.6 15.6 0.00 0.00 0.00 52 1005.2
20260503181049 62 192 8.7 19.1 0.00 0.00 0.00 53 1005.2
20260503180547 62 155 9.6 19.1 0.00 0.00 0.00 54 1005.2
20260503180112 62 220 9.6 20.0 0.00 0.00 0.00 54 1005.5
20260503175549 61 217 11.3 20.0 0.00 0.00 0.00 54 1005.5
20260503175048 61 201 8.7 18.2 0.00 0.00 0.00 56 1005.7
20260503174559 61 217 10.4 20.0 0.00 0.00 0.00 53 1005.8
20260503174048 61 191 10.4 20.0 0.00 0.00 0.00 54 1005.8
20260503173548 61 219 11.3 20.9 0.00 0.00 0.00 52 1005.8
20260503173103 61 155 12.2 22.6 0.00 0.00 0.00 54 1005.9
20260503172551 61 219 13.0 25.2 0.00 0.00 0.00 53 1005.9
20260503172048 61 236 13.0 25.2 0.00 0.00 0.00 52 1006.1
20260503171553 61 274 13.0 25.2 0.00 0.00 0.00 53 1006.1
20260503171048 61 211 11.3 19.1 0.00 0.00 0.00 51 1006.2
20260503170549 61 187 7.0 26.1 0.00 0.00 0.00 53 1006.2
20260503150549 55 216 7.8 14.8 0.00 0.00 0.00 69 1007.9
20260503150103 54 217 7.8 14.8 0.00 0.00 0.00 71 1008.0
20260503131049 51 228 8.7 14.8 0.00 0.00 0.00 68 1009.3
20260503130554 51 191 7.0 13.9 0.00 0.00 0.00 67 1009.4
20260503110549 49 219 6.1 10.4 0.00 0.00 0.00 58 1009.6
20260503081553 48 207 3.5 7.8 0.00 0.00 0.00 56 1010.8
20260503081050 48 213 4.3 7.8 0.00 0.00 0.00 57 1010.9
20260503080549 48 171 4.3 7.8 0.00 0.00 0.00 56 1010.9
20260503072551 47 204 3.5 6.1 0.00 0.00 0.00 57 1011.0
20260503072048 47 185 3.5 5.2 0.00 0.00 0.00 57 1011.0
20260503071557 47 177 3.5 5.2 0.00 0.00 0.00 57 1011.1
20260503071052 47 203 2.6 5.2 0.00 0.00 0.00 56 1011.1
20260503070549 47 197 1.7 4.3 0.00 0.00 0.00 57 1011.2
20260503055051 49 203 4.3 8.7 0.00 0.00 0.00 52 1011.8
20260503054553 49 219 3.5 8.7 0.00 0.00 0.00 52 1011.7
20260503054049 49 197 3.5 7.8 0.00 0.00 0.00 52 1011.7
20260503053549 49 199 3.5 6.1 0.00 0.00 0.00 52 1011.8
20260503053050 49 174 3.5 7.8 0.00 0.00 0.00 52 1011.8
20260503052549 49 202 3.5 8.7 0.00 0.00 0.00 52 1011.8
20260503052048 49 167 3.5 8.7 0.00 0.00 0.00 52 1012.0
20260503051550 49 178 4.3 8.7 0.00 0.00 0.00 52 1012.0
20260503051049 49 179 3.5 7.0 0.00 0.00 0.00 52 1012.0
20260503050550 49 185 2.6 6.1 0.00 0.00 0.00 52 1012.0
20260503050056 49 196 2.6 6.1 0.00 0.00 0.00 51 1012.1
20260503045548 49 180 2.6 6.1 0.00 0.00 0.00 51 1012.1
20260503045046 50 193 3.5 6.1 0.00 0.00 0.00 51 1012.1
20260503044559 49 181 2.6 6.1 0.00 0.00 0.00 51 1012.1
20260503044050 50 193 2.6 6.1 0.00 0.00 0.00 51 1012.2
20260503043549 49 180 2.6 6.1 0.00 0.00 0.00 51 1012.3
20260503043054 50 196 2.6 6.1 0.00 0.00 0.00 51 1012.3
20260503042549 49 175 2.6 6.1 0.00 0.00 0.00 51 1012.4
20260503042049 49 172 2.6 4.3 0.00 0.00 0.00 52 1012.3
20260503041550 49 193 2.6 3.5 0.00 0.00 0.00 51 1012.4
20260503041048 49 184 1.7 4.3 0.00 0.00 0.00 51 1012.5
20260503040546 49 148 2.6 4.3 0.00 0.00 0.00 51 1012.4
20260503035546 49 179 2.6 4.3 0.00 0.00 0.00 51 1012.5
20260503035046 49 181 1.7 4.3 0.00 0.00 0.00 51 1012.7
20260503034601 49 212 1.7 5.2 0.00 0.00 0.00 51 1012.7
20260503034049 49 206 1.7 5.2 0.00 0.00 0.00 51 1012.7
20260503033553 49 175 0.9 3.5 0.00 0.00 0.00 51 1012.7
20260503033057 49 175 1.7 3.5 0.00 0.00 0.00 51 1012.8
20260503032550 49 186 1.7 3.5 0.00 0.00 0.00 52 1012.8
20260503032050 49 184 0.9 3.5 0.00 0.00 0.00 52 1012.9
20260503031550 49 171 1.7 3.5 0.00 0.00 0.00 52 1012.9
20260503031047 49 205 1.7 2.6 0.00 0.00 0.00 52 1013.0
20260503030548 49 196 1.7 2.6 0.00 0.00 0.00 52 1013.1
20260503030124 49 184 0.9 2.6 0.00 0.00 0.00 52 1013.0
20260503025549 49 179 1.7 2.6 0.00 0.00 0.00 52 1013.1
20260503025049 49 181 1.7 2.6 0.00 0.00 0.00 52 1013.1
20260503024557 49 190 1.7 2.6 0.00 0.00 0.00 53 1013.1
20260503024046 49 152 0.9 2.6 0.00 0.00 0.00 53 1013.1
20260503023549 49 211 0.9 1.7 0.00 0.00 0.00 54 1013.1
20260503023054 49 213 0.0 0.9 0.00 0.00 0.00 54 1013.1
20260503022548 49 213 0.0 0.9 0.00 0.00 0.00 53 1013.1
20260503022049 49 0 0.0 0.9 0.00 0.00 0.00 54 1013.1
20260503021552 49 0 0.0 0.9 0.00 0.00 0.00 53 1013.1
20260503021047 49 213 0.0 0.9 0.00 0.00 0.00 53 1013.1
20260503020548 49 213 0.0 1.7 0.00 0.00 0.00 53 1013.1
20260503020055 50 213 0.9 1.7 0.00 0.00 0.00 52 1013.0
20260503015547 49 213 0.0 0.9 0.00 0.00 0.00 52 1013.1
20260503015046 50 0 0.0 0.9 0.00 0.00 0.00 51 1013.0
20260503014607 50 0 0.0 0.9 0.00 0.00 0.00 51 1012.9
20260503014047 51 0 0.0 0.9 0.00 0.00 0.00 50 1012.9
20260503013547 51 0 0.0 0.9 0.00 0.00 0.00 49 1012.9
20260503013052 52 0 0.0 1.7 0.00 0.00 0.00 49 1012.8
20260503012546 52 0 0.0 3.5 0.00 0.00 0.00 49 1012.8
20260503012045 53 213 0.9 3.5 0.00 0.00 0.00 47 1012.8
20260503011555 53 213 1.7 3.5 0.00 0.00 0.00 47 1012.8
20260503011047 53 224 0.9 3.5 0.00 0.00 0.00 46 1012.7
20260503010545 54 224 0.9 3.5 0.00 0.00 0.00 46 1012.8
20260503010108 54 224 1.7 5.2 0.00 0.00 0.00 45 1012.7
20260503005548 55 224 3.5 6.1 0.00 0.00 0.00 44 1012.7
20260503005049 55 232 1.7 6.1 0.00 0.00 0.00 44 1012.8
20260503004557 55 210 2.6 6.1 0.00 0.00 0.00 43 1012.8
20260503004048 55 219 4.3 6.1 0.00 0.00 0.00 43 1012.7
20260503003548 56 244 4.3 7.8 0.00 0.00 0.00 42 1012.6
20260503003118 56 233 3.5 8.7 0.00 0.00 0.00 41 1012.8
20260503002548 56 222 5.2 9.6 0.00 0.00 0.00 41 1012.7
20260503002049 56 228 4.3 9.6 0.00 0.00 0.00 41 1012.8
20260503001553 57 225 6.1 9.6 0.00 0.00 0.00 40 1012.9
20260503001051 57 235 5.2 8.7 0.00 0.00 0.00 40 1012.9